OAW74 LSZH-EHAM

Flight info

Callsign OAW74
Flight time 1h 4m
Altitude 38000
Route VEBIT T10 TORPA DCT EDOPI DCT GIVOR DCT SORAL DCT IBERA DCT BUB/N0396F300 Y28 HELEN
Aircraft E190/M-SDE3GILORVW/S

Departure

Time 2026-05-05 17:13
Airport Zürich Airport (LSZH)

Arrival

Time 2026-05-05 18:17
Airport Amsterdam Airport Schiphol (EHAM)
Time Latitude Longitude Altitude Speed Heading
2026-05-05 17:01 47.44171 8.56325 1401 ft 0 kts 66°
2026-05-05 17:03 47.44167 8.56310 1401 ft 4 kts 61°
2026-05-05 17:03 47.44151 8.56278 1411 ft 4 kts 34°
2026-05-05 17:03 47.44129 8.56266 1406 ft 4 kts 343°
2026-05-05 17:03 47.44123 8.56268 1404 ft 3 kts 335°
2026-05-05 17:05 47.44124 8.56268 1404 ft 1 kts 335°
2026-05-05 17:05 47.44143 8.56255 1408 ft 6 kts 335°
2026-05-05 17:05 47.44199 8.56217 1402 ft 12 kts 335°
2026-05-05 17:06 47.44291 8.56153 1402 ft 17 kts 335°
2026-05-05 17:06 47.44402 8.56057 1400 ft 20 kts 329°
2026-05-05 17:06 47.44542 8.55960 1399 ft 24 kts 335°
2026-05-05 17:06 47.44705 8.55847 1398 ft 28 kts 335°
2026-05-05 17:07 47.44886 8.55721 1394 ft 30 kts 335°
2026-05-05 17:07 47.45075 8.55596 1406 ft 30 kts 336°
2026-05-05 17:07 47.45207 8.55505 1406 ft 16 kts 334°
2026-05-05 17:07 47.45318 8.55430 1400 ft 19 kts 334°
2026-05-05 17:08 47.45446 8.55340 1407 ft 22 kts 335°
2026-05-05 17:08 47.45572 8.55253 1403 ft 12 kts 334°
2026-05-05 17:08 47.45651 8.55204 1402 ft 7 kts 354°
2026-05-05 17:08 47.45680 8.55235 1402 ft 7 kts 56°
2026-05-05 17:09 47.45679 8.55287 1397 ft 17 kts 96°
2026-05-05 17:09 47.45667 8.55453 1400 ft 14 kts 96°
2026-05-05 17:09 47.45658 8.55583 1402 ft 11 kts 96°
2026-05-05 17:09 47.45651 8.55682 1404 ft 9 kts 96°
2026-05-05 17:10 47.45645 8.55763 1412 ft 8 kts 96°
2026-05-05 17:10 47.45647 8.55831 1409 ft 6 kts 69°
2026-05-05 17:10 47.45699 8.55867 1407 ft 14 kts
2026-05-05 17:10 47.45792 8.55879 1408 ft 12 kts
2026-05-05 17:11 47.45876 8.55920 1407 ft 16 kts 19°
2026-05-05 17:11 47.45996 8.55976 1405 ft 19 kts
2026-05-05 17:11 47.46135 8.55996 1405 ft 22 kts
2026-05-05 17:11 47.46292 8.55986 1407 ft 25 kts 347°
2026-05-05 17:12 47.46479 8.55926 1400 ft 29 kts 347°
2026-05-05 17:12 47.46635 8.55755 1395 ft 35 kts 317°
2026-05-05 17:12 47.46995 8.55264 1388 ft 106 kts 317°
2026-05-05 17:12 47.47703 8.54329 1444 ft 159 kts 316°
2026-05-05 17:13 47.48590 8.53115 1939 ft 190 kts 313°
2026-05-05 17:13 47.49306 8.51480 2117 ft 185 kts 283°
2026-05-05 17:13 47.49287 8.49664 2069 ft 172 kts 261°
2026-05-05 17:13 47.49073 8.48152 2542 ft 142 kts 257°
2026-05-05 17:14 47.48720 8.46749 3238 ft 152 kts 245°
2026-05-05 17:14 47.47972 8.45522 3747 ft 185 kts 206°
2026-05-05 17:14 47.46573 8.45174 3230 ft 222 kts 184°
2026-05-05 17:14 47.45081 8.45569 3604 ft 204 kts 165°
2026-05-05 17:15 47.43798 8.46424 3804 ft 194 kts 152°
2026-05-05 17:15 47.42796 8.47552 4318 ft 176 kts 137°
2026-05-05 17:15 47.41989 8.49084 4777 ft 200 kts 123°
2026-05-05 17:15 47.41419 8.51006 5558 ft 206 kts 105°
2026-05-05 17:16 47.41394 8.53200 6036 ft 228 kts 77°
2026-05-05 17:16 47.41817 8.55444 6797 ft 227 kts 79°
2026-05-05 17:16 47.42352 8.57661 7445 ft 233 kts 62°
2026-05-05 17:16 47.43520 8.59340 8030 ft 241 kts 27°
2026-05-05 17:17 47.45189 8.59789 8439 ft 253 kts 349°
2026-05-05 17:17 47.46860 8.58977 9123 ft 255 kts 322°
2026-05-05 17:17 47.47933 8.56974 9890 ft 251 kts 287°
2026-05-05 17:17 47.48475 8.54380 10159 ft 276 kts 279°
2026-05-05 17:18 47.48571 8.51502 10419 ft 279 kts 256°
2026-05-05 17:18 47.47770 8.49045 10446 ft 271 kts 229°
2026-05-05 17:18 47.46479 8.46837 10739 ft 296 kts 227°
2026-05-05 17:18 47.45088 8.44479 11330 ft 310 kts 227°
2026-05-05 17:19 47.43653 8.42062 12218 ft 316 kts 228°
2026-05-05 17:19 47.42485 8.39184 12711 ft 338 kts 251°
2026-05-05 17:19 47.42345 8.35697 13640 ft 348 kts 278°
2026-05-05 17:19 47.43292 8.32379 14563 ft 358 kts 303°
2026-05-05 17:20 47.45070 8.29756 15536 ft 365 kts 317°
2026-05-05 17:20 47.47099 8.27438 16428 ft 370 kts 320°
2026-05-05 17:20 47.49156 8.25110 17246 ft 375 kts 319°
2026-05-05 17:20 47.51215 8.22685 18026 ft 381 kts 318°
2026-05-05 17:21 47.53289 8.20197 18760 ft 386 kts 318°
2026-05-05 17:21 47.55385 8.17673 19492 ft 391 kts 318°
2026-05-05 17:21 47.57505 8.15113 20215 ft 395 kts 318°
2026-05-05 17:22 47.61841 8.09937 21524 ft 404 kts 319°
2026-05-05 17:22 47.64029 8.07371 22140 ft 409 kts 318°
2026-05-05 17:22 47.66274 8.04732 22755 ft 412 kts 318°
2026-05-05 17:22 47.68550 8.02080 23353 ft 417 kts 319°
2026-05-05 17:23 47.70850 7.99416 23877 ft 420 kts 319°
2026-05-05 17:23 47.73165 7.96740 24413 ft 424 kts 319°
2026-05-05 17:23 47.75508 7.94037 24960 ft 427 kts 319°
2026-05-05 17:23 47.77847 7.91354 25492 ft 431 kts 319°
2026-05-05 17:24 47.80234 7.88617 25973 ft 435 kts 319°
2026-05-05 17:24 47.82641 7.85861 26454 ft 438 kts 319°
2026-05-05 17:24 47.85074 7.83092 26923 ft 442 kts 319°
2026-05-05 17:24 47.87531 7.80315 27376 ft 445 kts 319°
2026-05-05 17:25 47.90008 7.77526 27801 ft 448 kts 319°
2026-05-05 17:25 47.91671 7.75663 28074 ft 450 kts 320°
2026-05-05 17:25 47.95007 7.71937 28609 ft 454 kts 320°
2026-05-05 17:25 47.97541 7.69105 29046 ft 456 kts 320°
2026-05-05 17:26 48.00088 7.66283 29646 ft 454 kts 320°
2026-05-05 17:26 48.02617 7.63466 30175 ft 452 kts 320°
2026-05-05 17:26 48.05130 7.60644 30631 ft 451 kts 319°
2026-05-05 17:26 48.07644 7.57813 31074 ft 450 kts 319°
2026-05-05 17:27 48.10150 7.55007 31503 ft 449 kts 320°
2026-05-05 17:27 48.12654 7.52210 31894 ft 449 kts 319°
2026-05-05 17:27 48.15156 7.49420 32288 ft 448 kts 319°
2026-05-05 17:27 48.17656 7.46641 32657 ft 447 kts 320°
2026-05-05 17:28 48.20163 7.43869 33021 ft 447 kts 320°
2026-05-05 17:28 48.22669 7.41104 33382 ft 446 kts 320°
2026-05-05 17:28 48.25130 7.38392 33737 ft 446 kts 320°
2026-05-05 17:28 48.27632 7.35632 34061 ft 445 kts 320°
2026-05-05 17:29 48.30128 7.32883 34345 ft 445 kts 320°
2026-05-05 17:29 48.32629 7.30134 34591 ft 445 kts 320°
2026-05-05 17:29 48.35132 7.27388 34859 ft 445 kts 320°
2026-05-05 17:29 48.37631 7.24653 35138 ft 444 kts 320°
2026-05-05 17:30 48.40128 7.21919 35402 ft 443 kts 320°
2026-05-05 17:30 48.42632 7.19176 35640 ft 443 kts 320°
2026-05-05 17:30 48.45123 7.16455 35993 ft 441 kts 320°
2026-05-05 17:30 48.47590 7.13772 35865 ft 431 kts 321°
2026-05-05 17:31 48.49997 7.11200 35781 ft 419 kts 321°
2026-05-05 17:31 48.54795 7.06012 35857 ft 431 kts 321°
2026-05-05 17:32 48.59716 7.00677 35888 ft 443 kts 321°
2026-05-05 17:32 48.64747 6.95246 35834 ft 444 kts 321°
2026-05-05 17:33 48.69777 6.89784 35823 ft 444 kts 321°
2026-05-05 17:33 48.74807 6.84309 35825 ft 445 kts 321°
2026-05-05 17:34 48.79839 6.78821 35824 ft 445 kts 321°
2026-05-05 17:34 48.84834 6.73360 35824 ft 445 kts 321°
2026-05-05 17:35 48.89866 6.67838 35830 ft 446 kts 321°
2026-05-05 17:35 48.94900 6.62304 35824 ft 446 kts 321°
2026-05-05 17:36 48.99940 6.56756 35833 ft 446 kts 321°
2026-05-05 17:36 49.04941 6.51235 35827 ft 447 kts 321°
2026-05-05 17:37 49.09992 6.45659 35832 ft 447 kts 323°
2026-05-05 17:37 49.11782 6.44074 35826 ft 451 kts 334°
2026-05-05 17:37 49.15783 6.42062 35864 ft 454 kts 343°
2026-05-05 17:38 49.21899 6.39626 35823 ft 453 kts 343°
2026-05-05 17:38 49.28006 6.37133 35824 ft 453 kts 343°
2026-05-05 17:39 49.34067 6.34619 35828 ft 453 kts 343°
2026-05-05 17:39 49.40159 6.32082 35825 ft 453 kts 343°
2026-05-05 17:40 49.46255 6.29536 35829 ft 453 kts 343°
2026-05-05 17:40 49.52106 6.26140 35837 ft 448 kts 323°
2026-05-05 17:41 49.57045 6.20268 35811 ft 448 kts 319°
2026-05-05 17:41 49.61881 6.14315 35836 ft 447 kts 319°
2026-05-05 17:42 49.66777 6.08360 35833 ft 447 kts 319°
2026-05-05 17:42 49.71665 6.02414 35823 ft 447 kts 319°
2026-05-05 17:43 49.75730 5.97458 35826 ft 447 kts 319°
2026-05-05 17:43 49.80624 5.91478 35820 ft 448 kts 319°
2026-05-05 17:44 49.85524 5.85474 35810 ft 448 kts 319°
2026-05-05 17:44 49.90382 5.79507 35815 ft 448 kts 319°
2026-05-05 17:45 49.95276 5.73480 35814 ft 449 kts 319°
2026-05-05 17:45 50.00170 5.67437 35818 ft 449 kts 319°
2026-05-05 17:46 50.05061 5.61381 35821 ft 449 kts 319°
2026-05-05 17:46 50.09951 5.55309 35824 ft 450 kts 319°
2026-05-05 17:47 50.14841 5.49222 35829 ft 450 kts 319°
2026-05-05 17:47 50.19730 5.43119 35830 ft 450 kts 319°
2026-05-05 17:48 50.24588 5.37040 35848 ft 449 kts 319°
2026-05-05 17:48 50.29476 5.30908 35831 ft 450 kts 319°
2026-05-05 17:49 50.34351 5.24772 35841 ft 449 kts 319°
2026-05-05 17:49 50.39216 5.18632 35841 ft 449 kts 319°
2026-05-05 17:50 50.44082 5.12475 35842 ft 449 kts 319°
2026-05-05 17:50 50.48938 5.06314 35849 ft 448 kts 319°
2026-05-05 17:51 50.53761 5.00179 35850 ft 448 kts 319°
2026-05-05 17:51 50.58398 4.94265 35848 ft 448 kts 319°
2026-05-05 17:52 50.63082 4.88279 35851 ft 448 kts 319°
2026-05-05 17:52 50.67920 4.82072 35860 ft 448 kts 319°
2026-05-05 17:53 50.72726 4.75890 35869 ft 448 kts 319°
2026-05-05 17:53 50.77558 4.69660 35879 ft 448 kts 319°
2026-05-05 17:54 50.82387 4.63416 35888 ft 448 kts 319°
2026-05-05 17:54 50.87211 4.57165 35886 ft 448 kts 319°
2026-05-05 17:54 50.89557 4.53901 35526 ft 450 kts 310°
2026-05-05 17:55 50.91428 4.49958 35075 ft 447 kts 300°
2026-05-05 17:55 50.93072 4.45791 34637 ft 445 kts 298°
2026-05-05 17:55 50.94678 4.41606 34168 ft 444 kts 298°
2026-05-05 17:55 50.96273 4.37473 33695 ft 445 kts 299°
2026-05-05 17:56 50.97896 4.33295 33192 ft 445 kts 299°
2026-05-05 17:56 50.99528 4.29111 32650 ft 446 kts 299°
2026-05-05 17:56 51.01166 4.24918 32161 ft 447 kts 299°
2026-05-05 17:56 51.02806 4.20717 31659 ft 448 kts 300°
2026-05-05 17:57 51.04449 4.16505 31165 ft 449 kts 300°
2026-05-05 17:57 51.06093 4.12288 30696 ft 447 kts 300°
2026-05-05 17:57 51.07728 4.08090 30193 ft 446 kts 300°
2026-05-05 17:57 51.09465 4.04018 29587 ft 445 kts 309°
2026-05-05 17:58 51.11739 4.00710 28977 ft 441 kts 321°
2026-05-05 17:58 51.14194 3.97826 28397 ft 435 kts 323°
2026-05-05 17:58 51.16635 3.95061 27828 ft 428 kts 323°
2026-05-05 17:58 51.19039 3.92292 27275 ft 423 kts 322°
2026-05-05 17:59 51.21402 3.89532 26733 ft 418 kts 322°
2026-05-05 17:59 51.23904 3.87220 26171 ft 417 kts 339°
2026-05-05 17:59 51.26747 3.86417 25650 ft 414 kts 357°
2026-05-05 17:59 51.29619 3.86499 25192 ft 412 kts
2026-05-05 18:00 51.32478 3.86693 24727 ft 410 kts
2026-05-05 18:00 51.35284 3.86779 24263 ft 408 kts 360°
2026-05-05 18:00 51.38116 3.86749 23802 ft 405 kts 358°
2026-05-05 18:00 51.40923 3.86625 23317 ft 402 kts 357°
2026-05-05 18:01 51.43717 3.86508 22781 ft 399 kts 358°
2026-05-05 18:01 51.46474 3.86421 22258 ft 394 kts 358°
2026-05-05 18:01 51.49211 3.86351 21738 ft 390 kts 359°
2026-05-05 18:01 51.51903 3.86288 21242 ft 385 kts 359°
2026-05-05 18:02 51.54561 3.86227 20759 ft 380 kts 359°
2026-05-05 18:02 51.57190 3.86188 20276 ft 375 kts
2026-05-05 18:02 51.59723 3.86979 19788 ft 370 kts 22°
2026-05-05 18:02 51.62020 3.88774 19368 ft 365 kts 29°
2026-05-05 18:03 51.64238 3.90747 18952 ft 361 kts 30°
2026-05-05 18:03 51.66433 3.92689 18542 ft 359 kts 29°
2026-05-05 18:03 51.68620 3.94580 18144 ft 356 kts 28°
2026-05-05 18:03 51.70776 3.96420 17672 ft 353 kts 28°
2026-05-05 18:04 51.72940 3.98256 17208 ft 350 kts 28°
2026-05-05 18:04 51.75099 4.00079 16763 ft 348 kts 28°
2026-05-05 18:04 51.77237 4.01881 16332 ft 346 kts 28°
2026-05-05 18:04 51.79369 4.03676 15886 ft 344 kts 28°
2026-05-05 18:05 51.81486 4.05455 15464 ft 341 kts 28°
2026-05-05 18:05 51.83585 4.07214 15044 ft 339 kts 28°
2026-05-05 18:05 51.85678 4.08965 14559 ft 336 kts 28°
2026-05-05 18:05 51.87737 4.10684 14054 ft 330 kts 27°
2026-05-05 18:06 51.89760 4.12369 13561 ft 324 kts 27°
2026-05-05 18:06 51.91115 4.13351 13214 ft 320 kts 18°
2026-05-05 18:06 51.94044 4.13678 12503 ft 315 kts 355°
2026-05-05 18:06 51.96206 4.13258 11996 ft 310 kts 353°
2026-05-05 18:07 51.98343 4.12829 11437 ft 309 kts 353°
2026-05-05 18:07 52.00482 4.12467 10814 ft 309 kts 354°
2026-05-05 18:07 52.02630 4.12141 10199 ft 310 kts 355°
2026-05-05 18:07 52.04776 4.11835 9569 ft 310 kts 355°
2026-05-05 18:08 52.06925 4.11572 8911 ft 308 kts 359°
2026-05-05 18:08 52.09019 4.12192 8266 ft 307 kts 22°
2026-05-05 18:08 52.10742 4.14196 7633 ft 307 kts 48°
2026-05-05 18:08 52.11781 4.17195 7010 ft 307 kts 70°
2026-05-05 18:09 52.12388 4.20465 6404 ft 300 kts 72°
2026-05-05 18:09 52.12956 4.23633 5754 ft 283 kts 72°
2026-05-05 18:09 52.13483 4.26636 5104 ft 270 kts 72°
2026-05-05 18:09 52.13968 4.29516 4445 ft 258 kts 72°
2026-05-05 18:10 52.14431 4.32281 3804 ft 248 kts 72°
2026-05-05 18:10 52.14781 4.34985 3150 ft 243 kts 83°
2026-05-05 18:10 52.14948 4.37664 2470 ft 233 kts 70°
2026-05-05 18:10 52.15515 4.40047 2191 ft 213 kts 65°
2026-05-05 18:11 52.16057 4.42158 2287 ft 199 kts 63°
2026-05-05 18:11 52.16652 4.44221 2153 ft 201 kts 62°
2026-05-05 18:11 52.17227 4.46268 2024 ft 194 kts 63°
2026-05-05 18:11 52.17820 4.48146 1678 ft 183 kts 46°
2026-05-05 18:12 52.18833 4.49318 1338 ft 172 kts 27°
2026-05-05 18:12 52.19784 4.50333 1335 ft 167 kts 50°
2026-05-05 18:12 52.20259 4.51892 2025 ft 139 kts 60°
2026-05-05 18:12 52.20736 4.53394 2458 ft 158 kts 56°
2026-05-05 18:13 52.21352 4.54904 2660 ft 162 kts 53°
2026-05-05 18:13 52.22020 4.56386 2920 ft 154 kts 51°
2026-05-05 18:13 52.22732 4.57929 2620 ft 179 kts 51°
2026-05-05 18:13 52.23477 4.59516 2442 ft 170 kts 51°
2026-05-05 18:14 52.24134 4.61055 2351 ft 160 kts 58°
2026-05-05 18:14 52.24667 4.62664 2175 ft 163 kts 60°
2026-05-05 18:14 52.25200 4.64295 1922 ft 157 kts 56°
2026-05-05 18:14 52.25782 4.65746 1769 ft 146 kts 53°
2026-05-05 18:15 52.26291 4.67064 1397 ft 132 kts 54°
2026-05-05 18:15 52.26778 4.68248 946 ft 123 kts 51°
2026-05-05 18:15 52.27225 4.69381 697 ft 112 kts 58°
2026-05-05 18:15 52.27609 4.70467 575 ft 115 kts 53°
2026-05-05 18:16 52.28075 4.71542 393 ft 119 kts 50°
2026-05-05 18:16 52.28509 4.72687 172 ft 116 kts 53°
2026-05-05 18:16 52.28940 4.73799 51 ft 117 kts 53°
2026-05-05 18:16 52.29348 4.74846 -2 ft 93 kts 58°
2026-05-05 18:17 52.29601 4.75521 -3 ft 50 kts 57°
2026-05-05 18:17 52.29763 4.75787 -3 ft 26 kts 27°
2026-05-05 18:17 52.29877 4.75886 -3 ft 12 kts 27°
2026-05-05 18:17 52.29950 4.75947 -2 ft 12 kts 27°
2026-05-05 18:18 52.30007 4.76028 -2 ft 10 kts 57°
2026-05-05 18:18 52.30047 4.76131 -2 ft 12 kts 58°
2026-05-05 18:18 52.30090 4.76245 -2 ft 10 kts 58°
2026-05-05 18:18 52.30128 4.76288 -2 ft 4 kts
2026-05-05 18:19 52.30160 4.76275 -2 ft 7 kts 346°
2026-05-05 18:19 52.30212 4.76249 -2 ft 7 kts 327°
2026-05-05 18:19 52.30260 4.76217 -2 ft 5 kts 15°
2026-05-05 18:19 52.30275 4.76258 -2 ft 7 kts 58°
2026-05-05 18:20 52.30281 4.76273 -2 ft 0 kts 58°
2026-05-05 18:26 52.30281 4.76272 -2 ft 0 kts 58°